Evansville, IN

5:44 PM CST on February 19, 2017 (GMT -0600)
Evansville Regional

Weather History for KEVV - December, 2014

Change the Weather History Date:

Monday, December 29, 2014

  Actual Average Record
Temperature  
Mean Temperature 36 °F 33 °F  
Max Temperature 40 °F 41 °F 70 °F (1984)
Min Temperature 31 °F 25 °F -1 °F (1983)
Degree Days  
Heating Degree Days 29 32  
Month to date heating degree days 706 848  
Since 1 July heating degree days 1709 1709  
Cooling Degree Days 0 0  
Month to date cooling degree days 0 0  
Year to date cooling degree days 1477 1397  
Moisture  
Dew Point 26 °F    
Average Humidity 69    
Maximum Humidity 78    
Minimum Humidity 59    
Precipitation  
Precipitation 0.00 in 0.11 in 1.44 in (1910)
Month to date precipitation 3.43 3.55  
Year to date precipitation 47.21 45.10  
Snow  
Snow 0.00 in 0.10 in 4.10 in (1976)
Month to date snowfall T 2.9  
Since 1 July snowfall 2.4 3.2  
Snow Depth 0.00 in    
Sea Level Pressure  
Sea Level Pressure 30.31 in    
Wind  
Wind Speed 8 mph (NNE)    
Max Wind Speed 14 mph    
Max Gust Speed 16 mph    
Visibility 10 miles    
Events      
T = Trace of Precipitation, MM = Missing Value Source: NWS Daily Summary

Daily Weather History Graph

Daily Weather History Graph

Search for Another Location

Airport or City:

Trip Planner

Search our weather history database for the weather conditions in past years. The results will help you decide how hot, cold, wet, or windy it might be!

Date:

Astronomy

Dec. 29, 2014 Rise Set
Actual Time 7:05 AM CST 4:38 PM CST
Civil Twilight 6:36 AM CST 5:08 PM CST
Nautical Twilight 6:03 AM CST 5:41 PM CST
Astronomical Twilight 5:31 AM CST 6:13 PM CST
Moon 12:10 PM CST (12/29) 12:26 AM CST (12/29)
Length of Visible Light 10h 32m
Length of Day
9h 33m
First Quarter, 61% of the Moon is Illuminated
Dec 29
First Quarter
Jan 4
Full
Jan 13
Last Quarter
Jan 20
New
Jan 26
First Quarter

Hourly Weather History & Observations

Time (CST) Temp. Windchill Dew Point Humidity Pressure Visibility Wind Dir Wind Speed Gust Speed Precip Events Conditions
12:54 AM 33.1 °F 27.7 °F 26.1 °F 75% 30.25 in 9.0 mi North 5.8 mph - N/A   Overcast
1:54 AM 32.0 °F 28.7 °F 26.1 °F 79% 30.25 in 9.0 mi North 3.5 mph - N/A   Overcast
2:54 AM 32.0 °F 26.4 °F 26.1 °F 79% 30.25 in 10.0 mi North 5.8 mph - N/A   Overcast
3:54 AM 32.0 °F 26.4 °F 26.1 °F 79% 30.26 in 10.0 mi North 5.8 mph - N/A   Overcast
4:54 AM 32.0 °F 23.6 °F 25.0 °F 75% 30.25 in 10.0 mi NNE 10.4 mph - N/A   Overcast
5:21 AM 32.0 °F 25.6 °F 25.0 °F 75% 30.24 in 10.0 mi NNE 6.9 mph - N/A   Overcast
5:54 AM 32.0 °F 24.8 °F 25.0 °F 75% 30.26 in 10.0 mi NNE 8.1 mph - N/A   Overcast
6:54 AM 32.0 °F 24.8 °F 25.0 °F 75% 30.27 in 10.0 mi North 8.1 mph - N/A   Overcast
7:54 AM 32.0 °F 24.8 °F 25.0 °F 75% 30.30 in 10.0 mi NNE 8.1 mph - N/A   Overcast
8:54 AM 33.1 °F 24.4 °F 26.1 °F 75% 30.32 in 10.0 mi NNE 11.5 mph - N/A   Overcast
9:54 AM 35.1 °F 28.6 °F 26.1 °F 70% 30.32 in 10.0 mi ENE 8.1 mph - N/A   Scattered Clouds
10:54 AM 37.9 °F 30.9 °F 28.0 °F 68% 30.31 in 10.0 mi East 10.4 mph - N/A   Partly Cloudy
11:54 AM 39.0 °F 31.4 °F 27.0 °F 62% 30.30 in 10.0 mi ENE 12.7 mph - N/A   Clear
12:54 PM 39.0 °F 33.4 °F 27.0 °F 62% 30.29 in 10.0 mi NNE 8.1 mph - N/A   Clear
1:54 PM 39.0 °F 32.3 °F 27.0 °F 62% 30.27 in 10.0 mi ENE 10.4 mph - N/A   Clear
2:54 PM 39.9 °F 34.5 °F 27.0 °F 60% 30.28 in 10.0 mi NNE 8.1 mph - N/A   Clear
3:54 PM 39.0 °F 32.8 °F 28.0 °F 65% 30.30 in 10.0 mi North 9.2 mph - N/A   Clear
4:54 PM 37.0 °F 29.8 °F 28.0 °F 70% 30.31 in 10.0 mi North 10.4 mph - N/A   Clear
5:54 PM 35.1 °F 29.3 °F 27.0 °F 72% 30.32 in 10.0 mi NNE 6.9 mph - N/A   Clear
6:54 PM 34.0 °F 28.0 °F 25.0 °F 70% 30.33 in 10.0 mi North 6.9 mph - N/A   Clear
7:54 PM 34.0 °F 28.0 °F 24.1 °F 67% 30.36 in 10.0 mi North 6.9 mph - N/A   Clear
8:54 PM 32.0 °F 24.2 °F 24.1 °F 73% 30.38 in 10.0 mi NNE 9.2 mph - N/A   Clear
9:54 PM 30.9 °F 24.3 °F 24.1 °F 76% 30.39 in 10.0 mi NNE 6.9 mph - N/A   Clear
10:54 PM 30.9 °F 23.5 °F 24.1 °F 76% 30.40 in 10.0 mi NNE 8.1 mph - N/A   Clear
11:54 PM 32.0 °F 23.6 °F 23.0 °F 69% 30.41 in 10.0 mi North 10.4 mph - N/A   Clear